{"data":{"norad_id":67977,"epoch":"2026-05-24T23:35:38.118048Z","epoch_age_seconds":76197,"freshness":"FRESH","line1":"1 67977U 26038S   26144.98308007  .00021368  00000+0  66224-3 0  9999","line2":"2 67977  97.2839 155.0484 0001020  87.2857 272.8503 15.33449216 14935","mean_motion":15.33449216,"eccentricity":0.000102,"inclination_deg":97.2839,"raan_deg":155.0484,"arg_perigee_deg":87.2857,"mean_anomaly_deg":272.8503,"bstar":0.00066224,"rev_number":1493,"period_min":93.905946475113,"perigee_km":464.83257655875,"apogee_km":466.22868475541,"semimajor_km":6843.6676306571,"source":"CELESTRAK","updated_at":"2026-05-25T13:38:21.776369Z"}}